TimeEDT,TemperatureF,Dew PointF,Humidity,Sea Level PressureIn,VisibilityMPH,Wind Direction,Wind SpeedMPH,Gust SpeedMPH,PrecipitationIn,Events,Conditions,WindDirDegrees,DateUTC
12:13 AM,61.9,59.5,92,29.70,10.0,Calm,Calm,-,N/A,,Clear,0,2013-06-30 04:13:00
12:33 AM,61.3,59.4,93,29.71,10.0,Calm,Calm,-,N/A,,Clear,0,2013-06-30 04:33:00
12:54 AM,60.6,58.6,93,29.71,7.0,Calm,Calm,-,N/A,,Clear,0,2013-06-30 04:54:00
1:13 AM,60.8,59.0,94,29.71,3.0,Calm,Calm,-,N/A,,Clear,0,2013-06-30 05:13:00
1:33 AM,61.0,59.4,94,29.71,10.0,Calm,Calm,-,N/A,,Clear,0,2013-06-30 05:33:00
1:54 AM,60.8,59.0,94,29.71,7.0,Calm,Calm,-,N/A,,Clear,0,2013-06-30 05:54:00
2:13 AM,60.8,59.2,94,29.71,7.0,Calm,Calm,-,N/A,,Scattered Clouds,0,2013-06-30 06:13:00
2:34 AM,61.3,59.9,95,29.71,7.0,Calm,Calm,-,N/A,,Clear,0,2013-06-30 06:34:00
2:54 AM,61.7,60.1,94,29.71,7.0,Calm,Calm,-,N/A,,Mostly Cloudy,0,2013-06-30 06:54:00
3:13 AM,61.9,60.3,94,29.71,10.0,Calm,Calm,-,N/A,,Mostly Cloudy,0,2013-06-30 07:13:00
3:34 AM,62.1,60.4,94,29.71,5.0,Calm,Calm,-,N/A,,Mostly Cloudy,0,2013-06-30 07:34:00
3:54 AM,62.4,60.8,94,29.71,4.0,ENE,4.6,-,N/A,,Mostly Cloudy,60,2013-06-30 07:54:00
4:13 AM,62.4,60.8,94,29.71,0.8,ENE,5.8,-,N/A,,Overcast,60,2013-06-30 08:13:00
4:34 AM,62.6,61.0,94,29.71,1.5,Calm,Calm,-,N/A,,Overcast,0,2013-06-30 08:34:00
4:54 AM,62.8,61.2,94,29.71,3.0,NE,3.5,-,N/A,,Overcast,50,2013-06-30 08:54:00
5:13 AM,62.8,61.2,94,29.71,4.0,ENE,4.6,-,N/A,,Overcast,60,2013-06-30 09:13:00
5:33 AM,62.8,61.2,94,29.72,4.0,ENE,3.5,-,N/A,,Overcast,60,2013-06-30 09:33:00
5:54 AM,63.0,61.3,94,29.72,4.0,NE,3.5,-,N/A,,Overcast,50,2013-06-30 09:54:00
6:13 AM,63.0,61.3,94,29.73,3.0,ENE,3.5,-,N/A,,Overcast,60,2013-06-30 10:13:00
6:33 AM,63.0,61.3,94,29.74,3.0,Calm,Calm,-,N/A,,Overcast,0,2013-06-30 10:33:00
6:54 AM,63.0,61.3,94,29.75,3.0,ENE,4.6,-,N/A,,Overcast,70,2013-06-30 10:54:00
7:13 AM,63.1,61.3,94,29.75,3.0,East,3.5,-,N/A,,Overcast,80,2013-06-30 11:13:00
7:33 AM,63.3,61.3,93,29.77,4.0,Calm,Calm,-,N/A,,Overcast,0,2013-06-30 11:33:00
7:45 AM,63.5,61.7,94,29.77,4.0,NE,4.6,-,N/A,,Overcast,50,2013-06-30 11:45:00
8:13 AM,64.4,61.9,92,29.77,5.0,NE,5.8,-,N/A,,Overcast,40,2013-06-30 12:13:00
8:34 AM,65.5,62.1,89,29.77,5.0,NE,5.8,-,N/A,,Overcast,50,2013-06-30 12:34:00
8:53 AM,65.8,62.2,88,29.78,7.0,NE,5.8,-,N/A,,Overcast,50,2013-06-30 12:53:00
9:13 AM,66.4,62.6,88,29.78,7.0,ENE,5.8,-,N/A,,Overcast,60,2013-06-30 13:13:00
9:34 AM,66.6,62.2,86,29.79,7.0,East,6.9,-,N/A,,Overcast,80,2013-06-30 13:34:00
9:53 AM,66.6,62.2,86,29.79,10.0,ENE,5.8,-,N/A,,Overcast,70,2013-06-30 13:53:00
10:14 AM,66.7,62.1,85,29.80,10.0,East,6.9,-,N/A,,Overcast,80,2013-06-30 14:14:00
10:34 AM,67.5,62.4,84,29.79,10.0,East,4.6,-,0.01,,Overcast,80,2013-06-30 14:34:00
10:53 AM,69.6,63.0,79,29.80,10.0,East,6.9,-,0.01,,Overcast,100,2013-06-30 14:53:00
11:14 AM,68.9,62.6,80,29.80,10.0,ESE,5.8,-,N/A,,Overcast,110,2013-06-30 15:14:00
11:34 AM,69.6,62.8,79,29.80,10.0,East,5.8,-,N/A,,Overcast,90,2013-06-30 15:34:00
11:53 AM,70.2,62.8,77,29.80,10.0,East,5.8,-,N/A,,Overcast,90,2013-06-30 15:53:00
12:14 PM,71.2,62.6,74,29.80,10.0,East,5.8,-,N/A,,Overcast,90,2013-06-30 16:14:00
12:34 PM,72.7,62.8,71,29.80,10.0,SE,3.5,-,N/A,,Mostly Cloudy,130,2013-06-30 16:34:00
12:53 PM,72.7,62.4,70,29.80,10.0,SE,4.6,-,N/A,,Scattered Clouds,130,2013-06-30 16:53:00
1:14 PM,73.4,62.8,69,29.80,10.0,East,4.6,-,N/A,,Scattered Clouds,100,2013-06-30 17:14:00
1:34 PM,76.3,61.9,61,29.80,10.0,East,4.6,-,N/A,,Scattered Clouds,90,2013-06-30 17:34:00
1:53 PM,76.6,61.0,58,29.80,10.0,East,3.5,-,N/A,,Scattered Clouds,90,2013-06-30 17:53:00
2:14 PM,77.7,60.4,55,29.80,10.0,East,4.6,-,N/A,,Scattered Clouds,100,2013-06-30 18:14:00
2:34 PM,73.0,59.7,63,29.81,10.0,NNE,12.7,-,N/A,,Mostly Cloudy,20,2013-06-30 18:34:00
2:53 PM,70.7,60.8,71,29.80,10.0,NNE,13.8,19.6,N/A,,Overcast,30,2013-06-30 18:53:00
3:14 PM,70.9,61.2,71,29.81,10.0,NNE,11.5,-,N/A,,Overcast,30,2013-06-30 19:14:00
3:34 PM,72.3,59.2,63,29.81,10.0,NE,13.8,19.6,N/A,,Scattered Clouds,40,2013-06-30 19:34:00
3:53 PM,73.2,59.4,62,29.81,10.0,NE,17.3,20.7,N/A,,Clear,40,2013-06-30 19:53:00
4:14 PM,73.8,60.3,63,29.81,10.0,NNE,16.1,21.9,N/A,,Scattered Clouds,20,2013-06-30 20:14:00
4:33 PM,72.7,60.6,66,29.81,10.0,NE,12.7,19.6,N/A,,Mostly Cloudy,40,2013-06-30 20:33:00
4:54 PM,75.0,62.1,64,29.82,10.0,North,9.2,-,N/A,,Scattered Clouds,10,2013-06-30 20:54:00
5:14 PM,75.4,62.1,63,29.82,10.0,ENE,13.8,-,N/A,,Scattered Clouds,60,2013-06-30 21:14:00
5:33 PM,75.4,61.7,62,29.81,10.0,NE,11.5,-,N/A,,Clear,40,2013-06-30 21:33:00
5:54 PM,74.5,62.1,65,29.82,10.0,NE,13.8,-,N/A,,Clear,50,2013-06-30 21:54:00
6:14 PM,73.6,61.5,66,29.83,10.0,ENE,13.8,17.3,N/A,,Scattered Clouds,70,2013-06-30 22:14:00
6:33 PM,73.8,61.9,66,29.83,10.0,NE,11.5,-,N/A,,Mostly Cloudy,50,2013-06-30 22:33:00
6:54 PM,72.7,61.7,68,29.83,10.0,ENE,10.4,-,N/A,,Scattered Clouds,60,2013-06-30 22:54:00
7:14 PM,72.7,62.1,69,29.83,10.0,NE,12.7,-,N/A,,Clear,50,2013-06-30 23:14:00
7:33 PM,73.6,62.4,68,29.84,10.0,NE,10.4,16.1,N/A,,Clear,50,2013-06-30 23:33:00
7:54 PM,73.2,61.9,68,29.85,10.0,ENE,10.4,-,N/A,,Scattered Clouds,70,2013-06-30 23:54:00
8:14 PM,71.6,61.2,70,29.85,10.0,NE,10.4,-,N/A,,Mostly Cloudy,50,2013-07-01 00:14:00
8:33 PM,70.7,60.4,70,29.85,10.0,NE,11.5,-,N/A,,Scattered Clouds,50,2013-07-01 00:33:00
8:53 PM,69.8,59.9,71,29.86,10.0,NE,10.4,-,N/A,,Clear,50,2013-07-01 00:53:00
9:14 PM,68.7,59.5,72,29.86,10.0,NE,6.9,-,N/A,,Scattered Clouds,40,2013-07-01 01:14:00
9:33 PM,68.2,59.2,73,29.86,10.0,NE,10.4,-,N/A,,Scattered Clouds,50,2013-07-01 01:33:00
9:54 PM,68.0,59.0,73,29.87,10.0,NE,5.8,-,N/A,,Clear,40,2013-07-01 01:54:00
10:13 PM,67.5,58.3,72,29.88,10.0,NNE,6.9,-,N/A,,Scattered Clouds,30,2013-07-01 02:13:00
10:34 PM,66.9,58.8,75,29.89,10.0,NNE,6.9,-,N/A,,Scattered Clouds,20,2013-07-01 02:34:00
10:53 PM,66.4,58.5,76,29.89,10.0,NNE,6.9,-,N/A,,Mostly Cloudy,30,2013-07-01 02:53:00
11:13 PM,66.4,57.7,74,29.89,10.0,NE,6.9,-,N/A,,Mostly Cloudy,50,2013-07-01 03:13:00
11:34 PM,65.8,57.6,75,29.88,10.0,NNE,6.9,-,N/A,,Mostly Cloudy,20,2013-07-01 03:34:00
11:53 PM,65.5,57.4,75,29.87,10.0,NNE,6.9,-,N/A,,Scattered Clouds,30,2013-07-01 03:53:00